This demonstration page uses our WeatherBlox Daily Observations layout. Learn more.

Left ArrowRight Arrow

Hourly Observations for May 10, 2019

Temp ( °F °C ) Dew Point ( °F °C ) Humidity (%) Winds ( mph kmh ) Pressure ( in mb ) Visibility ( mi km ) Precip ( " mm )
12:15 am 00:15 Cloudy 57 14 57 14 100 100 NW 13 20 29.93 1013 7 11.26538 N/A
12:35 am 00:35 Cloudy 55 13 55 13 100 100 WNW 10 17 29.93 1014 10 16.0934 N/A
12:55 am 00:55 Cloudy 55 13 55 13 100 100 WNW 12 19 29.94 1014 10 16.0934 N/A
1:15 am 01:15 Cloudy 55 13 55 13 100 100 NW 7 11 29.94 1014 10 16.0934 N/A
1:35 am 01:35 Cloudy 55 13 55 13 100 100 NW 10 17 29.96 1015 10 16.0934 N/A
1:55 am 01:55 Cloudy 54 12 54 12 100 100 NW 8 13 29.96 1015 10 16.0934 N/A
2:16 am 02:16 Cloudy 54 12 54 12 100 100 NW 8 13 29.96 1015 10 16.0934 N/A
2:35 am 02:35 Cloudy 52 11 52 11 100 100 WNW 12 19 29.97 1015 10 16.0934 N/A
2:55 am 02:55 Cloudy 52 11 52 11 100 100 NW 9 15 29.97 1015 10 16.0934 N/A
3:15 am 03:15 Cloudy 52 11 52 11 100 100 WNW 9 15 29.97 1015 10 16.0934 N/A
3:35 am 03:35 Cloudy 52 11 52 11 100 100 WNW 7 11 29.98 1015 10 16.0934 N/A
3:56 am 03:56 Cloudy 52 11 52 11 100 100 W 9 15 30 1016 10 16.0934 N/A
4:15 am 04:15 Cloudy 50 10 50 10 100 100 NW 9 15 29.99 1016 10 16.0934 N/A
4:35 am 04:35 Cloudy 50 10 50 10 100 100 WNW 9 15 30 1016 10 16.0934 N/A
4:55 am 04:55 Cloudy 50 10 50 10 100 100 W 14 22 30.01 1016 10 16.0934 N/A
5:15 am 05:15 Cloudy 50 10 50 10 100 100 WNW 10 17 30 1016 10 16.0934 N/A
5:35 am 05:35 Cloudy 48 9 48 9 100 100 W 14 22 30 1016 10 16.0934 N/A
5:55 am 05:55 Cloudy 48 9 48 9 100 100 WNW 10 17 30.01 1016 10 16.0934 N/A
6:15 am 06:15 Cloudy 48 9 48 9 100 100 W 8 13 30.03 1017 10 16.0934 N/A
6:35 am 06:35 Cloudy 48 9 48 9 100 100 WNW 14 22 30.03 1017 10 16.0934 N/A
6:55 am 06:55 Cloudy 48 9 48 9 100 100 WNW 9 15 30.04 1017 10 16.0934 N/A
7:15 am 07:15 Cloudy 48 9 46 8 94 94 WNW 9 15 30.05 1018 10 16.0934 N/A
7:35 am 07:35 Cloudy 48 9 46 8 94 94 WNW 13 20 30.05 1018 10 16.0934 N/A
7:55 am 07:55 Cloudy 48 9 46 8 94 94 WNW 10 17 30.07 1018 10 16.0934 N/A
8:16 am 08:16 Cloudy 48 9 46 8 94 94 NW 10 17 30.07 1018 10 16.0934 N/A
8:35 am 08:35 Cloudy 48 9 46 8 94 94 WNW 15 24 30.08 1019 10 16.0934 N/A
8:55 am 08:55 Cloudy 46 8 46 8 100 100 WNW 12 19 30.08 1019 10 16.0934 N/A
9:15 am 09:15 Cloudy 48 9 45 7 87 87 NW 9 15 30.08 1019 10 16.0934 N/A
9:35 am 09:35 Cloudy 48 9 45 7 87 87 NW 9 15 30.1 1019 10 16.0934 N/A
9:55 am 09:55 Cloudy 48 9 45 7 87 87 WNW 12 19 30.11 1020 10 16.0934 N/A
10:15 am 10:15 Cloudy 48 9 45 7 87 87 WNW 9 15 30.12 1020 10 16.0934 N/A
10:35 am 10:35 Cloudy 48 9 45 7 87 87 WNW 12 19 30.12 1020 10 16.0934 N/A
10:55 am 10:55 Cloudy 48 9 45 7 87 87 WNW 12 19 30.13 1020 10 16.0934 N/A
11:15 am 11:15 Cloudy 48 9 45 7 87 87 WNW 12 19 30.13 1020 10 16.0934 N/A
11:36 am 11:36 Cloudy 48 9 45 7 87 87 WNW 10 17 30.13 1020 10 16.0934 N/A
11:55 am 11:55 Cloudy 50 10 45 7 82 82 WNW 9 15 30.13 1020 10 16.0934 N/A
12:15 pm 12:15 Cloudy 50 10 45 7 82 82 NW 10 17 30.13 1020 10 16.0934 N/A
12:35 pm 12:35 Cloudy 50 10 45 7 82 82 WNW 9 15 30.13 1020 10 16.0934 N/A
12:55 pm 12:55 Cloudy 50 10 45 7 82 82 NW 12 19 30.13 1020 10 16.0934 N/A
1:15 pm 13:15 Cloudy 50 10 46 8 88 88 WNW 13 20 30.14 1021 10 16.0934 N/A
1:35 pm 13:35 Cloudy 50 10 46 8 88 88 NW 9 15 30.15 1021 10 16.0934 N/A
1:55 pm 13:55 Cloudy 50 10 46 8 88 88 NW 8 13 30.15 1021 10 16.0934 N/A
2:15 pm 14:15 Cloudy 50 10 46 8 88 88 WNW 6 9 30.15 1021 10 16.0934 N/A
2:35 pm 14:35 Cloudy 50 10 46 8 88 88 W 8 13 30.15 1021 10 16.0934 N/A
2:55 pm 14:55 Cloudy 50 10 46 8 88 88 WNW 9 15 30.16 1021 10 16.0934 N/A
3:15 pm 15:15 Cloudy 50 10 46 8 88 88 WNW 9 15 30.15 1021 10 16.0934 N/A
3:35 pm 15:35 Cloudy 52 11 46 8 82 82 NW 6 9 30.17 1022 10 16.0934 N/A
3:55 pm 15:55 Cloudy 50 10 46 8 88 88 NNW 9 15 30.17 1022 10 16.0934 N/A
4:15 pm 16:15 Cloudy 50 10 46 8 88 88 NNW 10 17 30.16 1021 10 16.0934 N/A
4:35 pm 16:35 Cloudy 50 10 46 8 88 88 NW 8 13 30.15 1021 10 16.0934 N/A
4:55 pm 16:55 Cloudy 52 11 46 8 82 82 W 7 11 30.15 1021 10 16.0934 N/A
5:15 pm 17:15 Cloudy 52 11 45 7 77 77 WNW 5 7 30.15 1021 10 16.0934 N/A
5:35 pm 17:35 Cloudy 52 11 46 8 82 82 N 9 15 30.15 1021 10 16.0934 N/A
5:55 pm 17:55 Cloudy 50 10 46 8 88 88 NNW 6 9 30.17 1022 10 16.0934 N/A
6:16 pm 18:16 Cloudy 52 11 45 7 77 77 WNW 3 6 30.17 1022 10 16.0934 N/A
6:35 pm 18:35 Cloudy 52 11 45 7 77 77 WSW 3 6 30.17 1022 10 16.0934 N/A
6:55 pm 18:55 Cloudy 52 11 46 8 82 82 N N/A 30.17 1022 10 16.0934 N/A
7:15 pm 19:15 Cloudy 52 11 46 8 82 82 N N/A 30.16 1021 10 16.0934 N/A
7:35 pm 19:35 Cloudy 52 11 46 8 82 82 N N/A 30.15 1021 10 16.0934 N/A
7:56 pm 19:56 Cloudy 52 11 46 8 82 82 WNW 3 6 30.15 1021 10 16.0934 N/A
8:15 pm 20:15 Cloudy 52 11 46 8 82 82 N N/A 30.16 1021 10 16.0934 N/A
8:35 pm 20:35 Cloudy 52 11 46 8 82 82 N N/A 30.15 1021 10 16.0934 N/A
8:56 pm 20:56 Cloudy 50 10 46 8 88 88 N 6 9 30.15 1021 10 16.0934 N/A
9:15 pm 21:15 Cloudy 50 10 45 7 82 82 N 6 9 30.15 1021 10 16.0934 N/A
9:35 pm 21:35 Mostly Cloudy 48 9 45 7 87 87 N 5 7 30.16 1021 10 16.0934 N/A
9:55 pm 21:55 Partly Cloudy 46 8 45 7 93 93 N 3 6 30.17 1022 10 16.0934 N/A
10:15 pm 22:15 Clear 46 8 45 7 93 93 N N/A 30.17 1022 10 16.0934 N/A
10:35 pm 22:35 Clear 46 8 45 7 93 93 N N/A 30.18 1022 10 16.0934 N/A
10:55 pm 22:55 Clear 45 7 45 7 100 100 N N/A 30.18 1022 10 16.0934 N/A
11:15 pm 23:15 Clear 45 7 45 7 100 100 N N/A 30.19 1022 10 16.0934 N/A
11:36 pm 23:36 Clear 45 7 43 6 93 93 NNW 3 6 30.18 1022 10 16.0934 N/A
11:55 pm 23:55 Clear 43 6 43 6 100 100 N 5 7 30.19 1022 10 16.0934 N/A

Powered by AerisWeather